Showing default

ICEYE-X51, 63257

Orbit data source: Space-Track

ICEYE-X51, 63257 is a payload satellite owned by ICEYE US (US) in SSO that was launched on Sat, 15 Mar 2025 UTC via an FALCON 9 launch vehicle from the Air Force Western Test Range (AFWTR). Payload-class satellites include a variety of spacecraft equipped with specific instruments for various scientific and technological missions. These include communications satellites like Starlink; space stations such as the ISS; scientific satellites like the Hubble; Earth observation satellites from companies like Planet Labs, Umbra, and HawkEye 360; GPS; miniature CubeSats for education and research; and military/defense satellites.

Loading next visibility...
Identifier
63257, 2025-052AZ
Orbit
SSO
Country
Flag of USUS
Related business
Manufacturer
ICEYE
Mission
Operational Commercial Radar Imaging
Bus & Motor
ICEYE, Unknown motor
Mass
80 kg wet, 80 kg dry
Launch date (UTC)
2025-03-15 (1 year ago)
Launch vehicle
FALCON 9
Launch site
Air Force Western Test Range (AFWTR)
Object type
Payload
Rocket body
Debris
Shape & HBR
Box + 1 Pan, 0.7 m
Radar Cross Section
0.776 m², Medium (>0.1 m² and < 1m²)

Expand to show TLE details & history
Last TLE update: 6 hours ago

TLE from 6 hours ago
0 ICEYE-X51
1 63257U 25052AZ  26175.19137043  .00003679  00000-0  29385-3 0  9991
2 63257  97.7573  70.2716 0001942  69.3292 290.8140 15.00881487 69857
Epoch: 2026-06-24T04:35Z
TLE epoch observation values (Epoch: 2026-06-24T04:35:34.405Z)
Latitude
0.00002°
Longitude
89.02612°
Altitude
566.752 km
Speed
7.578 km/s
True Right ascension
04h 41m 05s
True Declination
0° 00' 00"
Sunlit
Object was in daylight at epoch
Visualization orbit readout
Latitude
Unknown
Longitude
Unknown
Altitude
Unknown
Speed
Unknown
Apparent Right ascension
Unknown
Apparent Declination
Unknown
Sunlit
N/A
Visualization observer readout
Local Sidereal Time
21:55:37
Azimuth
Unknown
Elevation
Unknown
Doppler factor
Unknown
Orbital elements
Apogee altitude
562.531 km
Perigee altitude
559.836 km
Semi-major axis
6,939.32 km
Eccentricity
0.00019
Inclination
97.7573°
RAAN
70.2716°
Arg. of periapsis
69.3292°
True anomaly
290.7932°
Mean anomaly
290.814°
Eccentric anomaly
290.8036°
Mean motion
3.75464 °/min
Orbital period
95.88 mins
BSTAR
0.00029385
Loading maneuver chart data...
Computing Atmospheric mass density...
Loading historical data...
Loading historical data...
Loading historical data...
Loading historical data...
Loading historical data...
Loading historical data...
Loading historical data...

Documentation

Showing up to 5 results
|